User: anonymous   Login
Location: Unspecified
(0.0000°N, 0.0000°E)
Time: 21:59:00
(UTC+00:00)
Language:

BEESAT 3 - Orbit

View from above orbital plane
View from above orbital plane
View from above satellite
View from above satellite

Ground track
Ground track

The orbit data is extracted from the following two-line orbital elements,

1 39134U 13015E   17082.61771308 +.00002458 +00000-0 +13072-3 0  9996
2 39134 064.8689 142.5821 0031700 291.8938 067.8819 15.17431489216110
Epoch (UTC): 23 March 2017 14:49:30
Eccentricity: 0.0031700
inclination: 64.8689°
perigee height: 492 km
apogee height: 535 km
right ascension of ascending node: 142.5821°
argument of perigee: 291.8938°
revolutions per day: 15.17431489
mean anomaly at epoch: 67.8819°
orbit number at epoch: 21611

The dashed part of the orbit path shows where the satellite is in the earth's shadow,  

DLR